Weather History for Stockholm Bromma, Sweden

Change the Weather History Date:

Thursday, October 3, 2013

  Actual Average Record
Temperature  
Mean Temperature 43 °F -  
Max Temperature 55 °F 47 °F 62 °F (2001)
Min Temperature 31 °F 37 °F 30 °F (2002)
Degree Days  
Heating Degree Days 22    
Moisture  
Dew Point 37 °F    
Average Humidity 79    
Maximum Humidity 100    
Minimum Humidity 41    
Precipitation  
Precipitation 0.00 in - - ()
Sea Level Pressure  
Sea Level Pressure 30.44 in    
Wind  
Wind Speed 4 mph ()    
Max Wind Speed 10 mph    
Max Gust Speed -    
Visibility 7.9 miles    
Events      
Averages and records for this station are not official NWS values.
T = Trace of Precipitation, MM = Missing Value Source: Averaged Metar Reports

Daily Weather History Graph

Daily Weather History Graph

Search for Another Location

Airport:

Trip Planner

Search our weather history database for the weather conditions in past years. The results will help you decide how hot, cold, wet, or windy it might be!

Date:

Astronomy

Oct. 03, 2013 Rise Set
Actual Time 6:58 AM CEST 6:15 PM CEST
Civil Twilight 6:17 AM CEST 6:55 PM CEST
Nautical Twilight 5:29 AM CEST 7:43 PM CEST
Astronomical Twilight 4:40 AM CEST 8:32 PM CEST
Moon 4:56 AM CEST (10/3) 5:23 PM CEST (10/3)
Length of Visible Light 12h 38m
Length of Day
11h 17m
Waning Crescent, 3% of the Moon is Illuminated
Oct 3
Waning Crescent
Oct 5
New
Oct 12
First Quarter
Oct 19
Full
Oct 27
Last Quarter

Hourly Weather History & Observations

Time (CEST) Temp. Windchill Dew Point Humidity Pressure Visibility Wind Dir Wind Speed Gust Speed Precip Events Conditions
12:00 AM 35 °F - 34 °F 95% 30.44 in 31 mi SSW 4.5 mph - -  
12:20 AM 35.6 °F 32.8 °F 33.8 °F 93% 30.42 in 6.2 mi SSW 3.5 mph - N/A   Unknown
12:50 AM 35.6 °F - 33.8 °F 93% 30.42 in 6.2 mi SSW 2.3 mph - N/A   Unknown
1:00 AM 34 °F - 33 °F 97% 30.45 in 31 mi SSW 2.2 mph - -  
1:20 AM 33.8 °F - 33.8 °F 100% 30.45 in 6.2 mi South 2.3 mph - N/A   Unknown
1:50 AM 33.8 °F - 33.8 °F 100% 30.45 in 6.2 mi SSW 2.3 mph - N/A   Unknown
2:00 AM 33 °F - 32 °F 96% 30.45 in 31 mi Calm Calm - -  
2:20 AM 33.8 °F - 32.0 °F 93% 30.45 in 6.2 mi Variable 1.2 mph - N/A   Unknown
2:50 AM 32.0 °F - 32.0 °F 100% 30.42 in 6.2 mi Variable 1.2 mph - N/A   Unknown
3:00 AM 33 °F - 32 °F 94% 30.45 in 28 mi South 2.2 mph - -  
3:20 AM 33.8 °F - 33.8 °F 100% 30.45 in 6.2 mi SSW 2.3 mph - N/A   Unknown
3:50 AM 33.8 °F - 32.0 °F 93% 30.45 in 6.2 mi SSW 2.3 mph - N/A   Unknown
4:00 AM 33 °F - 33 °F 99% 30.45 in 31 mi Calm Calm - -  
4:20 AM 32.0 °F - 32.0 °F 100% 30.45 in 6.2 mi SSW 2.3 mph - N/A   Unknown
4:50 AM 33.8 °F - 33.8 °F 100% 30.45 in 6.2 mi SSW 2.3 mph - N/A   Unknown
5:00 AM 33 °F - 33 °F 97% 30.45 in 12 mi SSW 4.5 mph - -  
5:20 AM 33.8 °F - 33.8 °F 100% 30.45 in 3.7 mi SSW 2.3 mph - N/A   Mist
5:50 AM 32.0 °F 28.7 °F 32.0 °F 100% 30.42 in - South 3.5 mph - N/A   Clear
6:00 AM 32 °F - 32 °F 99% 30.45 in 14 mi SSW 2.2 mph - -  
6:20 AM 32.0 °F - 32.0 °F 100% 30.45 in - SSW 2.3 mph - N/A   Clear
6:50 AM 32.0 °F - 30.2 °F 93% 30.45 in - Variable 1.2 mph - N/A   Clear
7:00 AM 31 °F - 31 °F 99% 30.45 in 10 mi South 2.2 mph - -  
7:20 AM 32.0 °F - 32.0 °F 100% 30.45 in - Variable 2.3 mph - N/A   Clear
7:50 AM 33.8 °F - 33.8 °F 100% 30.45 in - Variable 2.3 mph - N/A   Clear
8:00 AM 35 °F - 34 °F 96% 30.46 in 22 mi SSW 2.2 mph - -  
8:20 AM 35.6 °F 32.8 °F 35.6 °F 100% 30.45 in - WSW 3.5 mph - N/A   Clear
8:50 AM 41.0 °F 39.0 °F 37.4 °F 87% 30.45 in - SSW 3.5 mph - N/A   Clear
9:00 AM 43 °F - 38 °F 76% 30.47 in 25 mi South 4.5 mph - -  
9:20 AM 44.6 °F 43.1 °F 39.2 °F 81% 30.45 in - SSW 3.5 mph - N/A   Clear
9:50 AM 46.4 °F 42.9 °F 39.2 °F 76% 30.45 in - SW 6.9 mph - N/A   Clear
10:00 AM 47 °F - 39 °F 65% 30.47 in 25 mi SW 4.5 mph - -  
10:20 AM 48.2 °F - 39.2 °F 71% 30.45 in - SW 5.8 mph - N/A   Clear
10:50 AM 50.0 °F - 39.2 °F 66% 30.45 in - WSW 5.8 mph - N/A   Clear
11:00 AM 50 °F - 40 °F 60% 30.48 in 16 mi SSW 6.7 mph - -  
11:20 AM 50.0 °F - 39.2 °F 66% 30.45 in - WSW 8.1 mph - N/A   Clear
11:50 AM 53.6 °F - 41.0 °F 62% 30.45 in - WSW 10.4 mph - N/A   Clear
12:00 PM 52 °F - 41 °F 57% 30.47 in 19 mi WSW 8.9 mph - -  
12:20 PM 51.8 °F - 41.0 °F 67% 30.45 in - SW 9.2 mph - N/A   Clear
12:50 PM 53.6 °F - 39.2 °F 58% 30.45 in - WSW 10.4 mph - N/A   Clear
1:00 PM 54 °F - 39 °F 47% 30.46 in 25 mi West 8.9 mph - -  
1:20 PM 53.6 °F - 39.2 °F 58% 30.45 in - WSW 10.4 mph - N/A   Clear
1:50 PM 55.4 °F - 39.2 °F 54% 30.45 in - SW 9.2 mph - N/A   Clear
2:00 PM 54 °F - 37 °F 42% 30.45 in 25 mi SW 8.9 mph - -  
2:20 PM 53.6 °F - 37.4 °F 54% 30.42 in - WSW 9.2 mph - N/A   Clear
2:50 PM 55.4 °F - 37.4 °F 51% 30.42 in - WSW 9.2 mph - N/A   Clear
3:00 PM 55 °F - 38 °F 41% 30.44 in 25 mi SW 6.7 mph - -  
3:20 PM 55.4 °F - 37.4 °F 51% 30.42 in 6.2 mi SW 9.2 mph - N/A   Partly Cloudy
3:50 PM 53.6 °F - 37.4 °F 54% 30.42 in 6.2 mi SW 9.2 mph - N/A   Partly Cloudy
4:00 PM 54 °F - 38 °F 44% 30.43 in 31 mi SW 6.7 mph - -  
4:20 PM 55.4 °F - 39.2 °F 54% 30.42 in - SW 9.2 mph - N/A   Clear
4:50 PM 53.6 °F - 39.2 °F 58% 30.42 in - SW 5.8 mph - N/A   Clear
5:00 PM 53 °F - 38 °F 46% 30.42 in 31 mi SSW 6.7 mph - -  
5:20 PM 53.6 °F - 37.4 °F 54% 30.42 in - SW 6.9 mph - N/A   Clear
5:50 PM 51.8 °F - 37.4 °F 58% 30.39 in - SW 6.9 mph - N/A   Clear
6:00 PM 51 °F - 38 °F 50% 30.42 in 28 mi SSW 4.5 mph - -  
6:20 PM 48.2 °F - 39.2 °F 71% 30.42 in - SW 5.8 mph - N/A   Clear
6:50 PM 46.4 °F 44.3 °F 39.2 °F 76% 30.42 in - South 4.6 mph - N/A   Clear
7:00 PM 44 °F - 39 °F 75% 30.43 in 31 mi South 4.5 mph - -  
7:20 PM 46.4 °F 44.3 °F 39.2 °F 76% 30.42 in - South 4.6 mph - N/A   Clear
7:50 PM 42.8 °F 41.1 °F 39.2 °F 87% 30.42 in - South 3.5 mph - N/A   Clear
8:00 PM 43 °F - 39 °F 79% 30.43 in 31 mi South 2.2 mph - -  
8:20 PM 41.0 °F 39.0 °F 39.2 °F 93% 30.42 in - South 3.5 mph - N/A   Clear
8:50 PM 41.0 °F 38.0 °F 39.2 °F 93% 30.42 in - South 4.6 mph - N/A   Clear
9:00 PM 41 °F - 38 °F 85% 30.43 in 31 mi South 2.2 mph - -  
9:20 PM 39.2 °F 37.0 °F 37.4 °F 93% 30.42 in - South 3.5 mph - N/A   Clear
9:50 PM 39.2 °F 35.9 °F 39.2 °F 100% 30.42 in - SSW 4.6 mph - N/A   Clear
10:00 PM 40 °F - 38 °F 88% 30.43 in 31 mi SSW 4.5 mph - -  
10:20 PM 41.0 °F 38.0 °F 37.4 °F 87% 30.42 in 6.2 mi SSW 4.6 mph - N/A   Unknown
10:50 PM 41.0 °F 37.1 °F 37.4 °F 87% 30.42 in 6.2 mi SSW 5.8 mph - N/A   Unknown
11:00 PM 40 °F - 37 °F 84% 30.43 in 31 mi SW 4.5 mph - -  
11:20 PM 41.0 °F 38.0 °F 37.4 °F 87% 30.42 in 6.2 mi SSW 4.6 mph - N/A   Unknown
11:50 PM 39.2 °F 35.0 °F 37.4 °F 93% 30.42 in 6.2 mi SSW 5.8 mph - N/A   Unknown